JQ1YUX-13 Tokyo Ota-ku JP current weather conditions

sailwx.info

Wind from 279

Air temperature 5.0° C
Dewpoint -4.3° C

Last reported at 2017-Jan-25 00:44 UTC.
Time now 2017-Jan-25 01:30 UTC

Location: N 35°35' E 139°40'.
View on Google Maps.

See reports from other nearby stations

  
Tides and Currents Weather Stations Pressure Air Temp Water Temp Dewpoint Dewpoint Depression Visibility Wind Speed Wind Dir Waves Ship Positions
date/time (UTC)wind fromknots sea level pressurealtimeterstation pressurevisibilityair tempwater tempwave heightnotes
2017-Jan-25 00:44 279 5.0
2017-Jan-25 00:33 270 4.4
2017-Jan-25 00:14 279 2.8
2017-Jan-25 00:03 280 1.7
2017-Jan-24 23:44 280 1.1
2017-Jan-24 23:33 280 0.6
2017-Jan-24 23:14 287 -0.0
2017-Jan-24 23:03 288 -0.6
2017-Jan-24 22:44 009 -1.1
2017-Jan-24 22:33 -1.1
2017-Jan-24 22:14 -1.1
2017-Jan-24 22:03 005 -0.6
2017-Jan-24 21:44 005 -0.6
2017-Jan-24 21:33 -0.0
2017-Jan-24 21:14 009 1.1
2017-Jan-24 21:03 005 0.6
2017-Jan-24 20:44 013 -0.6
2017-Jan-24 20:33 014 -0.6
2017-Jan-24 20:14 014 -0.0
2017-Jan-24 20:03 013 -0.0
2017-Jan-24 19:44 014 -0.0
2017-Jan-24 19:33 014 -0.0
2017-Jan-24 19:14 015 0.6
2017-Jan-24 19:03 014 0.6
2017-Jan-24 18:44 014 0.6
2017-Jan-24 18:33 013 1.1
2017-Jan-24 18:14 013 1.1
2017-Jan-24 18:03 013 1.1
2017-Jan-24 17:44 027 1.1
2017-Jan-24 17:33 350 1.1
2017-Jan-24 17:14 338 1.1
2017-Jan-24 17:03 334 1.7
2017-Jan-24 16:44 355 1.7
2017-Jan-24 16:33 028 1.7
2017-Jan-24 16:14 346 1.7
2017-Jan-24 16:03 1.7
2017-Jan-24 15:44 344 1.7
2017-Jan-24 15:33 344 1.7
2017-Jan-24 15:14 022 2.2
2017-Jan-24 15:03 019 2.2
2017-Jan-24 14:44 010 2.2
2017-Jan-24 14:33 340 1.7
2017-Jan-24 14:14 315 1.1
2017-Jan-24 14:03 325 1.1
2017-Jan-24 13:44 328 1.1
2017-Jan-24 13:33 355 1.1
2017-Jan-24 13:14 009 1.1
2017-Jan-24 13:03 331 1.1
2017-Jan-24 12:44 339 1.1
2017-Jan-24 12:33 315 1.1
2017-Jan-24 12:14 326 1.7
2017-Jan-24 12:03 355 1.7
2017-Jan-24 11:44 345 1.7
2017-Jan-24 11:33 348 1.7
2017-Jan-24 11:14 327 2.2
2017-Jan-24 11:03 025 2.2
2017-Jan-24 10:44 331 2.8
2017-Jan-24 10:33 018 0 gusting 6 2.8
2017-Jan-24 10:14 355 0 gusting 3 2.8
2017-Jan-24 10:03 022 0 gusting 7 2.8
2017-Jan-24 09:44 333 3.3
2017-Jan-24 09:33 355 1 gusting 5 3.3
2017-Jan-24 09:14 336 3.9
2017-Jan-24 09:03 336 3.9
2017-Jan-24 08:44 341 0 gusting 1 4.4
2017-Jan-24 08:33 330 0 gusting 1 4.4
2017-Jan-24 08:14 348 1 gusting 4 5.0
2017-Jan-24 08:03 321 3 gusting 8 5.0
2017-Jan-24 07:44 346 0 gusting 6 6.1
2017-Jan-24 07:33 336 1 gusting 5 6.1
2017-Jan-24 07:14 346 0 gusting 5 6.7
2017-Jan-24 07:03 327 4 gusting 6 6.7
2017-Jan-24 06:44 323 7.2
2017-Jan-24 06:33 321 7.8
2017-Jan-24 06:14 260 1 gusting 3 7.8
2017-Jan-24 06:03 278 2 gusting 8 7.8
2017-Jan-24 05:43 009 0 gusting 7 7.8
2017-Jan-24 05:33 284 0 gusting 0 7.2
2017-Jan-24 05:13 342 7.8
2017-Jan-24 05:03 287 1 gusting 5 7.8
2017-Jan-24 04:43 267 1 gusting 6 7.8
2017-Jan-24 04:33 340 0 gusting 3 7.2
2017-Jan-24 04:13 338 6.7
2017-Jan-24 04:03 025 5 gusting 7 6.7
2017-Jan-24 03:43 286 0 gusting 1 6.7
2017-Jan-24 03:33 307 0 gusting 6 6.7
2017-Jan-24 03:13 021 0 gusting 4 6.1
2017-Jan-24 03:03 333 1 gusting 3 5.6
2017-Jan-24 02:43 355 3 gusting 6 6.1
2017-Jan-24 02:33 313 0 gusting 0 6.1
2017-Jan-24 02:13 337 0 gusting 4 6.1
2017-Jan-24 02:03 332 5.6
2017-Jan-24 01:43 355 0 gusting 4 5.6
2017-Jan-24 01:33 284 5.6
2017-Jan-24 01:13 290 1 gusting 6 5.0
2017-Jan-24 01:03 329 2 gusting 0 5.0
2017-Jan-24 00:43 273 0 gusting 1 3.9
2017-Jan-24 00:33 315 3.9
2017-Jan-24 00:13 282 0 2.2
2017-Jan-24 00:03 279 1.7
2017-Jan-23 23:43 313 0.6
2017-Jan-23 23:33 313 -0.0
2017-Jan-23 23:13 315 -0.0
2017-Jan-23 23:03 313 -0.0
2017-Jan-23 22:43 314 -0.6
2017-Jan-23 22:33 314 -0.6
2017-Jan-23 22:13 313 -1.1
2017-Jan-23 22:03 313 -1.1
2017-Jan-23 21:43 313 -1.7
2017-Jan-23 21:13 313 -1.7
2017-Jan-23 21:03 313 -1.1
2017-Jan-23 20:43 313 -1.1
2017-Jan-23 20:33 313 -1.1
2017-Jan-23 20:13 313 -1.1
2017-Jan-23 20:03 313 -1.1
2017-Jan-23 19:43 313 -1.1
2017-Jan-23 19:13 313 -1.1
2017-Jan-23 18:43 314 -0.6
2017-Jan-23 18:33 313 -0.6
2017-Jan-23 18:13 313 -0.6
2017-Jan-23 17:43 313 -0.0
2017-Jan-23 17:13 313 -0.0
2017-Jan-23 16:43 313 0.6
2017-Jan-23 16:13 313 -0.0
2017-Jan-23 16:03 313 -0.0
2017-Jan-23 15:43 313 -0.0
2017-Jan-23 15:13 313 0.6
2017-Jan-23 14:43 314 1.1
2017-Jan-23 14:33 313 1.1
2017-Jan-23 14:13 313 1.1
2017-Jan-23 14:03 314 1.1
2017-Jan-23 13:43 313 1.7
2017-Jan-23 13:33 313 1.7
2017-Jan-23 13:13 313 1.7
2017-Jan-23 13:03 314 1.7
2017-Jan-23 12:43 311 1.7
2017-Jan-23 12:33 310 1.7
2017-Jan-23 12:13 313 1.7
2017-Jan-23 12:03 306 1.7
2017-Jan-23 11:43 307 2.2
2017-Jan-23 11:13 005 2 gusting 6 2.8
2017-Jan-23 10:43 355 2 gusting 7 3.3
2017-Jan-23 10:33 015 3 gusting 6 3.3
2017-Jan-23 10:13 037 1 gusting 2 3.3
2017-Jan-23 10:03 335 3.9
2017-Jan-23 09:43 266 3.9
2017-Jan-23 09:33 338 0 gusting 5 3.9
2017-Jan-23 09:13 257 1 gusting 3 3.9
2017-Jan-23 08:43 4.4
2017-Jan-23 08:13 5.0
2017-Jan-23 07:43 346 4 gusting 7 5.6
2017-Jan-23 07:13 351 0 5.6
2017-Jan-23 06:43 012 0 gusting 6 5.6
2017-Jan-23 06:13 5.6
2017-Jan-23 05:43 355 2 gusting 6 6.7
2017-Jan-23 05:13 013 5 gusting 7 6.7
2017-Jan-23 05:03 005 2 gusting 6 6.7
2017-Jan-23 04:43 346 4 gusting 9 6.7
2017-Jan-23 04:13 024 4 gusting 6 7.2
2017-Jan-23 03:43 014 3 gusting 8 7.2
2017-Jan-23 03:33 355 6 gusting 8 7.2
2017-Jan-23 03:13 322 5 gusting 7 7.2
2017-Jan-23 03:03 7.2
2017-Jan-23 02:43 338 1 gusting 6 7.2
2017-Jan-23 02:33 348 4 gusting 10 7.2
2017-Jan-23 02:13 290 0 6.7
2017-Jan-23 01:43 342 6 gusting 11 6.1
2017-Jan-23 01:13 319 5 gusting 10 6.1
2017-Jan-23 01:03 261 1 gusting 5 5.6